Sanford, FL

4:29 AM EDT on October 18, 2017 (GMT -0400)
Orlando Sanford

Weather History for KSFB - October, 2012

Change the Weather History Date:

Thursday, October 4, 2012

  Actual Average Record
Temperature  
Mean Temperature 82 °F 78 °F  
Max Temperature 91 °F 87 °F 95 °F (1971)
Min Temperature 73 °F 70 °F 57 °F (1974)
Degree Days  
Heating Degree Days 0 0  
Month to date heating degree days 0  
Since 1 July heating degree days 0  
Cooling Degree Days 17 13  
Month to date cooling degree days 55  
Year to date cooling degree days 2949  
Growing Degree Days 32 (Base 50)    
Moisture  
Dew Point 72 °F    
Average Humidity 80    
Maximum Humidity 94    
Minimum Humidity 55    
Precipitation  
Precipitation 0.01 in 0.16 in 2.59 in (1958)
Month to date precipitation 0.68  
Year to date precipitation 43.46  
Snow  
Snow 0.00 in - - ()
Month to date snowfall  
Since 1 July snowfall  
Snow Depth -    
Sea Level Pressure  
Sea Level Pressure 30.16 in    
Wind  
Wind Speed 3 mph (North)    
Max Wind Speed 22 mph    
Max Gust Speed 25 mph    
Visibility 10 miles    
Events Thunderstorm    
T = Trace of Precipitation, MM = Missing Value Source: NWS Daily Summary

Daily Weather History Graph

Daily Weather History Graph

Search for Another Location

Airport or City:

Trip Planner

Search our weather history database for the weather conditions in past years. The results will help you decide how hot, cold, wet, or windy it might be!

Date:

Astronomy

Oct. 04, 2012 Rise Set
Actual Time 7:19 AM EDT 7:06 PM EDT
Civil Twilight 6:56 AM EDT 7:30 PM EDT
Nautical Twilight 6:28 AM EDT 7:57 PM EDT
Astronomical Twilight 6:01 AM EDT 8:25 PM EDT
Moon 10:02 PM EDT (10/4) 11:14 AM EDT (10/4)
Length of Visible Light 12h 34m
Length of Day
11h 46m
Waning Gibbous, 82% of the Moon is Illuminated
Oct 4
Waning Gibbous
Oct 8
Last Quarter
Oct 15
New
Oct 21
First Quarter
Oct 29
Full

Hourly Weather History & Observations

Time (EDT) Temp. Heat Index Dew Point Humidity Pressure Visibility Wind Dir Wind Speed Gust Speed Precip Events Conditions
12:53 AM 73.9 °F - 71.1 °F 91% 30.18 in 10.0 mi Calm Calm - N/A   Clear
1:53 AM 73.9 °F - 71.1 °F 91% 30.17 in 10.0 mi Calm Calm - N/A   Clear
2:53 AM 73.9 °F - 71.1 °F 91% 30.16 in 10.0 mi Calm Calm - N/A   Clear
3:53 AM 73.9 °F - 71.1 °F 91% 30.14 in 10.0 mi Calm Calm - N/A   Clear
4:53 AM 73.9 °F - 71.1 °F 91% 30.14 in 10.0 mi Calm Calm - N/A   Clear
5:53 AM 73.0 °F - 71.1 °F 93% 30.16 in 10.0 mi Calm Calm - N/A   Clear
6:53 AM 73.9 °F - 72.0 °F 93% 30.17 in 10.0 mi Calm Calm - N/A   Partly Cloudy
7:53 AM 75.0 °F - 72.0 °F 90% 30.18 in 10.0 mi Calm Calm - N/A   Clear
8:53 AM 79.0 °F - 73.9 °F 84% 30.19 in 10.0 mi North 3.5 mph - N/A   Clear
9:53 AM 82.9 °F 90.2 °F 75.0 °F 77% 30.20 in 10.0 mi Variable 3.5 mph - N/A   Clear
10:21 AM 82.4 °F 89.5 °F 75.2 °F 79% 30.20 in 10.0 mi Calm Calm - N/A   Mostly Cloudy
10:49 AM 84.2 °F 92.3 °F 75.2 °F 74% 30.20 in 10.0 mi Calm Calm - N/A   Scattered Clouds
10:53 AM 84.0 °F 92.6 °F 75.9 °F 76% 30.19 in 10.0 mi Calm Calm - N/A   Scattered Clouds
11:53 AM 87.1 °F 94.5 °F 73.0 °F 63% 30.18 in 10.0 mi SE 3.5 mph - N/A   Partly Cloudy
12:53 PM 88.0 °F 95.6 °F 73.0 °F 61% 30.17 in 10.0 mi South 3.5 mph - N/A   Scattered Clouds
1:53 PM 90.0 °F 96.9 °F 72.0 °F 55% 30.14 in 10.0 mi ESE 4.6 mph - N/A   Clear
2:53 PM 90.0 °F 96.9 °F 72.0 °F 55% 30.11 in 10.0 mi East 5.8 mph - N/A   Partly Cloudy
3:53 PM 91.0 °F 99.3 °F 73.0 °F 55% 30.09 in 10.0 mi East 11.5 mph - N/A   Clear
4:53 PM 87.1 °F 94.5 °F 73.0 °F 63% 30.09 in 10.0 mi East 12.7 mph - N/A   Partly Cloudy
5:30 PM 80.6 °F 83.9 °F 69.8 °F 70% 30.10 in 10.0 mi NNE 11.5 mph - N/A   Mostly Cloudy
5:53 PM 80.1 °F 82.7 °F 68.0 °F 67% 30.12 in 10.0 mi NNE 8.1 mph - N/A   Overcast
6:27 PM 77.0 °F - 69.8 °F 78% 30.13 in 10.0 mi WSW 21.9 mph 25.3 mph N/A   Mostly Cloudy
6:45 PM 75.2 °F - 69.8 °F 83% 30.12 in 10.0 mi WNW 10.4 mph - N/A   Mostly Cloudy
6:53 PM 75.2 °F - 69.8 °F 83% 30.13 in 10.0 mi WNW 9.2 mph - N/A   Mostly Cloudy
7:53 PM 77.0 °F - 71.6 °F 83% 30.17 in 10.0 mi West 3.5 mph - N/A Thunderstorm Thunderstorm
8:53 PM 75.0 °F - 71.1 °F 87% 30.17 in 10.0 mi WNW 9.2 mph - 0.00 in Thunderstorm Thunderstorm
9:00 PM 75.2 °F - 71.6 °F 89% 30.18 in 10.0 mi NW 8.1 mph - N/A Thunderstorm Thunderstorm
9:53 PM 75.0 °F - 71.1 °F 87% 30.17 in 10.0 mi NNW 11.5 mph - 0.01 in   Partly Cloudy
10:16 PM 73.4 °F - 71.6 °F 94% 30.18 in 10.0 mi NNW 8.1 mph - N/A   Mostly Cloudy
10:38 PM 73.4 °F - 71.6 °F 94% 30.19 in 10.0 mi North 3.5 mph - N/A   Scattered Clouds
10:53 PM 75.0 °F - 71.1 °F 87% 30.16 in 10.0 mi NE 8.1 mph - N/A   Clear
11:53 PM 75.0 °F - 71.1 °F 87% 30.12 in 10.0 mi NNE 4.6 mph - 0.00 in   Partly Cloudy